STARLINK-34563, 64708

Orbit data source: Space-Track

STARLINK-34563, 64708 is a payload satellite owned by SpaceX/Seattle (US) in LEO that was launched on Sat, 28 Jun 2025 UTC via an FALCON 9 launch vehicle from the Air Force Western Test Range (AFWTR). Payload-class satellites include a variety of spacecraft equipped with specific instruments for various scientific and technological missions. These include communications satellites like Starlink; space stations such as the ISS; scientific satellites like the Hubble; Earth observation satellites from companies like Planet Labs, Umbra, and HawkEye 360; GPS; miniature CubeSats for education and research; and military/defense satellites.

Loading next visibility...
Identifier
64708, 2025-142N
Orbit
LEO
Last TLE update
3 hours ago
Origin
Manufacturer
SpaceX/Seattle
Mission
Operational spacecraft
Bus & Motor
STARLINK V2MO, Unknown motor
Mass
575 kg wet, ~530 kg dry
Launch date (UTC)
2025-06-28 (3 weeks ago)
Launch vehicle
FALCON 9
Launch site
Air Force Western Test Range (AFWTR)
Object type
Payload
Rocket body
Debris
Shape & HBR
Unknown
Radar Cross Section
Large (>1 m²)

Expand to show TLE details & history

TLE from 3 hours ago
0 STARLINK-34563
1 64708U 25142N   25199.58335648 -.01248520  00000-0 -21607-1 0  9998
2 64708  69.9999 194.6437 0004025 278.8293 175.2356 15.53414867  4009
Epoch: 2025-07-18T14:00Z
TLE epoch observation values (Epoch: 2025-07-18T14:00:01.999Z)
Latitude
69.71017°
Longitude
149.76523°
Altitude
420.906 km
Speed
7.664 km/s
True Right ascension
19h 45m 37s
True Declination
69° 35' 33"
Sunlit
Object was in daylight at epoch
Visualization orbit readout
Latitude
4.66588°
Longitude
-134.08282°
Altitude
410.466 km
Speed
7.665 km/s
Apparent Right ascension
22h 14m 18s
Apparent Declination
-24° 37' 26"
Sunlit
Object is in daylight
Visualization observer readout
Local Sidereal Time
06:12:58
Azimuth
267.764° W
Elevation
-37.769°
Doppler factor
1
Orbital elements
Apogee altitude
407.392 km
Perigee altitude
401.932 km
Semi-major axis
6,782.799 km
Eccentricity
0.0004
Inclination
69.9999°
RAAN
194.6437°
Arg. of periapsis
278.8293°
True anomaly
175.23943°
Mean anomaly
175.2356°
Eccentric anomaly
175.23751°
Mean motion
3.88535 °/min
Orbital period
92.66 mins
BSTAR
-0.021607
Loading maneuver chart data...
Loading SW <> Apogee altitude chart data...
Loading historical data...
Loading historical data...
Loading historical data...
Loading historical data...
Loading historical data...
Loading historical data...
Loading historical data...
|